Location: St. Louis
(38.6270°N, 90.1994°W)
Time: 08:08:52
(UTC-06:00)

Altair - Pass Details

Date: 01 December 2021
Orbit: 1501 x 1683 km, 47.2° (Epoch: 17 January)

Event Time Altitude Azimuth Distance (km) Brightness Sun altitude
Rises 22:40:55 0° 300° (WNW) 4,646 10.3 -67.7°
Enters shadow 22:42:09 - 299° (WNW) 4,245 10.1 -67.9°
Reaches altitude 10° 22:43:59 10° 297° (WNW) 3,656 - -68.1°
Maximum altitude 22:52:55 60° 220° (SW) 1,682 - -69.3°
Drops below altitude 10° 23:01:57 10° 143° (SE) 3,685 - -70.4°
Sets 23:05:03 0° 140° (SE) 4,685 - -70.8°
